W3ADC Weather Reports


time (UTC)temp
C
wind
direction
speed
KPH
gust
KPH
rain 1hr
cm
rain 24hr
cm
rain mn
cm
humidity
%
barometer
mb
20260507121042 10 5 8.0 19.3 0.00 0.84 0.05 55 1011.7
20260507120541 10 286 8.0 19.3 0.00 0.84 0.05 56 1011.6
20260507120054 10 303 4.8 14.5 0.00 0.84 0.05 57 1011.7
20260507115542 10 22 6.4 14.5 0.00 0.84 0.05 57 1011.7
20260507115041 10 308 4.8 14.5 0.00 0.84 0.05 58 1011.7
20260507114556 10 300 3.2 17.7 0.00 0.84 0.05 58 1011.7
20260507114042 10 331 6.4 17.7 0.00 0.84 0.05 58 1011.7
20260507113540 10 0 4.8 14.5 0.00 0.84 0.05 59 1011.7
20260507113058 10 319 4.8 14.5 0.00 0.84 0.05 60 1011.7
20260507112542 10 304 6.4 16.1 0.00 0.84 0.05 61 1011.7
20260507112042 10 335 8.0 16.1 0.00 0.84 0.05 61 1011.4
20260507111600 10 297 6.4 14.5 0.00 0.84 0.05 62 1011.3
20260507111039 10 338 6.4 16.1 0.00 0.84 0.05 62 1011.2
20260507110541 10 319 4.8 16.1 0.00 0.84 0.05 64 1011.1
20260507110056 10 346 4.8 9.7 0.00 0.84 0.05 66 1011.1
20260507105541 9 331 3.2 8.0 0.00 0.84 0.05 69 1011.1
20260507105041 10 340 1.6 6.4 0.00 0.84 0.05 69 1011.1
20260507104555 10 329 1.6 4.8 0.00 0.84 0.05 69 1011.1
20260507104040 10 348 0.0 3.2 0.00 0.84 0.05 68 1011.2
20260507103542 9 348 0.0 4.8 0.00 0.84 0.05 67 1011.2
20260507103052 9 0 1.6 4.8 0.00 0.84 0.05 68 1011.1
20260507102541 10 13 0.0 6.4 0.00 0.84 0.05 68 1010.7
20260507102041 10 0 1.6 6.4 0.00 0.84 0.05 67 1010.6
20260507101602 10 355 1.6 6.4 0.00 0.84 0.05 68 1010.6
20260507101040 9 298 3.2 8.0 0.00 0.84 0.05 68 1010.4
20260507100541 9 0 1.6 8.0 0.00 0.84 0.05 70 1010.6
20260507100052 9 0 1.6 4.8 0.00 0.84 0.05 72 1010.4
20260507095542 9 0 0.0 4.8 0.00 0.84 0.05 72 1010.5
20260507095042 9 23 0.0 4.8 0.00 0.84 0.05 71 1010.4
20260507094552 10 0 1.6 4.8 0.00 0.84 0.05 71 1010.4
20260507094040 10 0 0.0 4.8 0.00 0.84 0.05 72 1010.6
20260507093540 10 0 0.0 4.8 0.00 0.84 0.05 73 1010.5
20260507093051 10 15 1.6 3.2 0.00 0.84 0.05 73 1010.6
20260507092540 10 0 0.0 3.2 0.00 0.84 0.05 74 1010.5
20260507092042 10 87 0.0 4.8 0.00 0.84 0.05 74 1010.4
20260507091552 10 0 0.0 4.8 0.00 0.84 0.05 74 1010.4
20260507091042 10 0 0.0 3.2 0.00 0.84 0.05 73 1010.4
20260507090541 10 27 0.0 4.8 0.00 0.84 0.05 73 1010.3
20260507090111 10 59 1.6 6.4 0.00 0.84 0.05 73 1010.3
20260507085545 10 0 1.6 8.0 0.00 0.84 0.05 73 1010.2
20260507085042 10 0 1.6 9.7 0.00 0.84 0.05 73 1010.2
20260507084555 10 89 3.2 12.9 0.00 0.84 0.05 73 1010.3
20260507084041 10 299 4.8 12.9 0.00 0.84 0.05 75 1010.3
20260507083541 10 338 4.8 17.7 0.00 0.84 0.05 76 1010.2
20260507083050 10 5 6.4 17.7 0.00 0.84 0.05 79 1010.1
20260507082540 10 9 6.4 17.7 0.00 0.84 0.05 82 1010.1
20260507082042 10 26 4.8 12.9 0.00 0.84 0.05 85 1010.1
20260507081549 10 44 3.2 8.0 0.00 0.84 0.05 87 1009.9
20260507081042 10 315 3.2 12.9 0.00 0.84 0.05 88 1009.8
20260507080541 10 298 3.2 14.5 0.00 0.84 0.05 89 1009.7
20260507080051 10 345 4.8 14.5 0.00 0.84 0.05 89 1009.8
20260507075538 10 19 4.8 14.5 0.00 0.84 0.05 89 1009.8
20260507075038 10 339 3.2 12.9 0.00 0.84 0.05 89 1009.9
20260507074555 10 330 3.2 12.9 0.00 0.84 0.05 89 1009.9
20260507074043 10 9 3.2 8.0 0.00 0.84 0.05 89 1009.8
20260507073543 10 355 1.6 8.0 0.00 0.84 0.05 89 1009.7
20260507073044 10 5 3.2 8.0 0.00 0.84 0.05 89 1009.8
20260507072543 10 334 0.0 4.8 0.00 0.84 0.05 89 1009.9
20260507072040 10 341 1.6 4.8 0.00 0.84 0.05 89 1010.0
20260507071548 10 317 1.6 4.8 0.00 0.84 0.05 89 1010.0
20260507071043 10 346 0.0 4.8 0.00 0.84 0.05 89 1010.1
20260507070541 10 0 1.6 3.2 0.00 0.84 0.05 89 1010.1
20260507070053 10 295 0.0 6.4 0.00 0.84 0.05 89 1010.2
20260507065541 10 0 1.6 6.4 0.00 0.84 0.05 89 1010.1
20260507065040 10 338 0.0 6.4 0.03 0.84 0.05 89 1010.1
20260507064607 10 0 1.6 6.4 0.03 0.84 0.05 89 1010.1
20260507064041 10 61 1.6 6.4 0.03 0.84 0.05 88 1010.0
20260507063540 10 346 0.0 6.4 0.03 0.84 0.05 88 1010.1
20260507063056 10 0 1.6 6.4 0.03 0.84 0.05 88 1010.1
20260507062540 10 0 1.6 8.0 0.03 0.84 0.05 87 1010.3
20260507062113 10 0 1.6 8.0 0.03 0.84 0.05 87 1010.2
20260507061550 11 0 0.0 6.4 0.03 0.84 0.05 87 1010.2
20260507061041 11 61 1.6 9.7 0.03 0.84 0.05 87 1010.3
20260507060540 11 0 1.6 9.7 0.03 0.84 0.05 87 1010.2
20260507060052 11 327 4.8 9.7 0.03 0.84 0.05 86 1010.2
20260507055542 11 15 3.2 6.4 0.03 0.84 0.05 86 1010.1
20260507055044 11 344 3.2 6.4 0.00 0.81 0.03 86 1010.1
20260507054606 11 0 0.0 6.4 0.00 0.81 0.03 85 1010.1
20260507054042 11 59 1.6 12.9 0.00 0.81 0.03 84 1010.1
20260507053541 11 61 3.2 19.3 0.00 0.81 0.03 84 1010.0
20260507053055 11 318 3.2 19.3 0.00 0.81 0.03 83 1010.1
20260507052545 11 265 8.0 19.3 0.00 0.81 0.03 83 1010.1
20260507052041 11 267 4.8 16.1 0.00 0.81 0.03 85 1010.1
20260507051550 11 68 3.2 8.0 0.00 0.81 0.03 87 1010.1
20260507051038 11 321 1.6 12.9 0.00 0.81 0.03 86 1010.0
20260507050542 11 337 3.2 12.9 0.00 0.81 0.03 86 1009.8
20260507050046 11 343 4.8 12.9 0.03 0.81 0.03 86 1009.9
20260507045542 11 337 3.2 12.9 0.03 0.81 0.03 86 1010.0
20260507045110 11 335 4.8 12.9 0.03 0.81 0.03 85 1010.1
20260507044550 11 304 6.4 11.3 0.03 0.81 0.03 85 1010.1
20260507044041 11 327 3.2 11.3 0.03 0.81 0.03 85 1010.1
20260507043538 11 307 6.4 14.5 0.03 0.81 0.03 85 1010.0
20260507043052 11 342 4.8 17.7 0.03 0.81 0.03 85 1009.9
20260507042540 11 306 9.7 17.7 0.03 0.81 0.03 85 1010.2
20260507042043 11 312 8.0 20.9 0.03 0.81 0.03 84 1009.9
20260507041603 12 306 8.0 20.9 0.03 0.81 0.03 84 1009.9
20260507041045 12 316 9.7 19.3 0.03 0.81 0.03 84 1009.8
20260507040544 12 317 9.7 19.3 0.03 0.81 0.03 84 1009.9
20260507040058 12 300 6.4 16.1 0.00 0.79 0.00 83 1009.7
20260507035541 12 340 3.2 9.7 0.00 0.79 0.79 84 1009.7
20260507035041 12 5 3.2 16.1 0.00 0.79 0.79 84 1009.5
20260507034556 12 265 4.8 16.1 0.00 0.79 0.79 83 1009.4
20260507034039 12 344 4.8 16.1 0.00 0.79 0.79 84 1009.6
20260507033542 12 323 4.8 22.5 0.00 0.79 0.79 84 1009.7
20260507033047 12 344 9.7 22.5 0.00 0.79 0.79 84 1009.7
20260507032543 13 328 12.9 22.5 0.00 0.79 0.79 83 1009.7
20260507032040 13 302 11.3 19.3 0.00 0.79 0.79 82 1009.6
20260507031547 13 339 12.9 19.3 0.00 0.79 0.79 81 1009.8
20260507031041 13 329 3.2 16.1 0.00 0.79 0.79 82 1009.9
20260507030543 13 355 4.8 17.7 0.00 0.79 0.79 81 1009.6
20260507030101 13 338 8.0 17.7 0.00 0.79 0.79 81 1009.3
20260507025540 13 332 9.7 25.7 0.00 0.79 0.79 81 1009.2
20260507025042 13 312 12.9 25.7 0.00 0.79 0.79 80 1009.0
20260507024557 13 299 11.3 19.3 0.00 0.79 0.79 80 1009.1
20260507024041 13 314 11.3 19.3 0.00 0.79 0.79 80 1009.4
20260507023543 14 303 8.0 19.3 0.00 0.79 0.79 80 1009.5
20260507023110 14 337 3.2 14.5 0.00 0.79 0.79 80 1009.4
20260507022543 14 319 4.8 17.7 0.00 0.79 0.79 79 1009.3
20260507022040 14 349 6.4 19.3 0.00 0.79 0.79 79 1009.4
20260507021552 14 316 8.0 19.3 0.00 0.79 0.79 79 1009.2
20260507021040 14 258 9.7 19.3 0.00 0.79 0.79 79 1009.2
20260507020543 14 355 9.7 24.1 0.00 0.79 0.79 80 1009.1
20260507020048 14 312 11.3 24.1 0.00 0.79 0.79 81 1009.2
20260507015541 14 339 9.7 17.7 0.03 0.79 0.79 81 1009.2
20260507015040 14 360 8.0 17.7 0.05 0.79 0.79 82 1009.2
20260507014601 14 313 8.0 17.7 0.05 0.79 0.79 83 1009.2
20260507014043 15 328 6.4 14.5 0.08 0.79 0.79 83 1009.2
20260507013539 15 341 6.4 12.9 0.08 0.79 0.79 84 1009.2
20260507013109 15 286 3.2 16.1 0.08 0.79 0.79 84 1009.2
20260507012541 15 15 4.8 16.1 0.08 0.79 0.79 84 1009.1
20260507012041 15 350 6.4 16.1 0.08 0.79 0.79 85 1009.4
20260507011558 15 319 6.4 16.1 0.10 0.79 0.79 86 1009.3
20260507011040 15 360 6.4 12.9 0.10 0.79 0.79 87 1009.3
20260507010540 15 338 3.2 11.3 0.10 0.79 0.79 88 1009.4
20260507010049 15 337 4.8 14.5 0.10 0.79 0.79 87 1009.2
20260507005540 15 306 6.4 16.1 0.08 0.76 0.76 87 1009.2
20260507005041 15 301 6.4 16.1 0.05 0.74 0.74 86 1009.2
20260507004550 16 281 8.0 16.1 0.05 0.74 0.74 86 1009.2
20260507004040 16 306 8.0 16.1 0.03 0.71 0.71 85 1009.2
20260507003541 16 304 8.0 17.7 0.03 0.71 0.71 86 1008.9
20260507003050 16 283 9.7 17.7 0.03 0.71 0.71 86 1008.8
20260507002542 16 302 8.0 17.7 0.03 0.71 0.71 86 1008.7
20260507002042 16 311 6.4 17.7 0.03 0.71 0.71 86 1008.8
20260507001607 16 290 4.8 12.9 0.00 0.69 0.69 87 1008.9
20260507001045 17 315 6.4 12.9 0.00 0.69 0.69 87 1008.7
20260507000541 16 301 3.2 14.5 0.00 0.69 0.69 88 1008.4
20260507000052 16 292 4.8 16.1 0.00 0.69 0.69 88 1008.2
20260506235544 17 327 8.0 16.1 0.00 0.69 0.69 89 1008.0
20260506235040 17 313 11.3 16.1 0.00 0.69 0.69 89 1007.8
20260506234552 17 290 4.8 9.7 0.00 0.69 0.69 88 1007.6
20260506234045 17 315 1.6 3.2 0.00 0.69 0.69 88 1007.8
20260506233542 17 0 0.0 3.2 0.00 0.69 0.69 87 1007.7
20260506233049 17 0 0.0 3.2 0.00 0.69 0.69 87 1007.7
20260506232543 17 0 0.0 3.2 0.00 0.69 0.69 87 1007.6
20260506232041 17 242 0.0 3.2 0.00 0.69 0.69 86 1007.4
20260506231551 17 0 0.0 3.2 0.00 0.69 0.69 86 1007.5
20260506231041 18 0 0.0 3.2 0.00 0.69 0.69 86 1007.4
20260506230540 18 250 0.0 3.2 0.00 0.69 0.69 86 1007.4
20260506230044 18 0 0.0 4.8 0.00 0.69 0.69 86 1007.4
20260506225541 18 257 0.0 4.8 0.00 0.69 0.69 86 1007.4
20260506225041 18 259 0.0 4.8 0.00 0.69 0.69 86 1007.4
20260506224549 18 0 0.0 4.8 0.00 0.69 0.69 86 1007.4
20260506224041 18 231 0.0 4.8 0.00 0.69 0.69 86 1007.5
20260506223542 18 0 0.0 4.8 0.00 0.69 0.69 86 1007.4
20260506223104 18 0 1.6 4.8 0.00 0.69 0.69 86 1007.3
20260506222541 18 227 0.0 4.8 0.00 0.69 0.69 86 1007.4
20260506222042 18 223 1.6 4.8 0.00 0.69 0.69 86 1007.5
20260506221555 18 229 1.6 4.8 0.00 0.69 0.69 86 1007.4
20260506221041 18 226 1.6 4.8 0.00 0.69 0.69 85 1007.3
20260506220541 18 227 1.6 12.9 0.00 0.69 0.69 85 1007.3
20260506220049 18 215 3.2 12.9 0.00 0.69 0.69 85 1007.1
20260506215540 18 210 3.2 8.0 0.00 0.69 0.69 84 1007.2
20260506215041 18 225 1.6 8.0 0.00 0.69 0.69 84 1007.2
20260506214547 18 158 1.6 12.9 0.00 0.69 0.69 84 1007.2
20260506214040 18 229 1.6 12.9 0.00 0.69 0.69 84 1007.1
20260506213545 18 225 1.6 8.0 0.00 0.69 0.69 84 1007.0
20260506213054 18 225 1.6 8.0 0.00 0.69 0.69 84 1006.9
20260506212541 18 0 1.6 8.0 0.00 0.69 0.69 83 1006.9
20260506212044 18 215 1.6 6.4 0.00 0.69 0.69 83 1006.8
20260506211552 18 219 1.6 6.4 0.00 0.69 0.69 84 1006.7
20260506211041 18 0 1.6 8.0 0.00 0.69 0.69 83 1006.7
20260506210541 18 203 3.2 8.0 0.00 0.69 0.69 83 1006.6
20260506210050 18 219 1.6 8.0 0.00 0.69 0.69 84 1006.5
20260506205541 18 228 1.6 9.7 0.00 0.69 0.69 83 1006.5
20260506205042 18 203 3.2 9.7 0.00 0.69 0.69 83 1006.5
20260506204555 18 234 1.6 9.7 0.00 0.69 0.69 83 1006.5
20260506204040 18 225 1.6 9.7 0.00 0.69 0.69 83 1006.6
20260506203541 18 229 3.2 9.7 0.00 0.69 0.69 82 1006.5
20260506203055 18 277 3.2 8.0 0.00 0.69 0.69 82 1006.6
20260506202544 18 231 1.6 8.0 0.00 0.69 0.69 82 1006.6
20260506202041 18 233 1.6 8.0 0.00 0.69 0.69 82 1006.4
20260506201553 18 202 1.6 8.0 0.00 0.69 0.69 82 1006.4
20260506201045 18 230 3.2 8.0 0.00 0.69 0.69 81 1006.5
20260506200540 18 237 3.2 9.7 0.00 0.69 0.69 81 1006.6
20260506200120 19 225 4.8 9.7 0.00 0.69 0.69 80 1006.6
20260506195541 19 231 3.2 9.7 0.00 0.69 0.69 80 1006.5
20260506195041 19 126 3.2 9.7 0.00 0.69 0.69 80 1006.5
20260506194544 19 271 3.2 11.3 0.00 0.69 0.69 81 1006.5
20260506194041 19 215 4.8 12.9 0.00 0.69 0.69 81 1006.4
20260506193545 19 234 4.8 12.9 0.00 0.69 0.69 81 1006.4
20260506193050 19 207 4.8 11.3 0.00 0.69 0.69 80 1006.4
20260506192540 18 254 4.8 12.9 0.00 0.69 0.69 82 1006.5
20260506192042 18 240 3.2 12.9 0.00 0.69 0.69 83 1006.6
20260506191548 18 211 4.8 17.7 0.00 0.69 0.69 83 1006.7
20260506191041 18 239 4.8 17.7 0.00 0.69 0.69 84 1006.7
20260506190542 18 221 3.2 11.3 0.00 0.69 0.69 84 1006.7
20260506190050 18 213 3.2 12.9 0.00 0.69 0.69 84 1006.7
20260506185546 17 230 4.8 14.5 0.00 0.69 0.69 84 1006.7
20260506185044 18 242 3.2 14.5 0.00 0.69 0.69 84 1006.8
20260506184553 18 246 3.2 17.7 0.00 0.69 0.69 84 1006.8
20260506184041 17 221 4.8 20.9 0.00 0.69 0.69 85 1007.0
20260506183541 17 219 4.8 20.9 0.00 0.69 0.69 84 1006.8
20260506183048 17 178 4.8 12.9 0.00 0.69 0.69 84 1007.0
20260506182540 17 164 4.8 19.3 0.00 0.69 0.69 84 1006.9
20260506182041 17 227 6.4 19.3 0.00 0.69 0.69 85 1006.9
20260506181544 17 248 3.2 19.3 0.00 0.69 0.69 85 1006.9
20260506181041 17 238 6.4 19.3 0.00 0.69 0.69 86 1006.9
20260506180543 17 248 6.4 20.9 0.00 0.69 0.69 86 1006.9
20260506180104 17 251 8.0 24.1 0.00 0.69 0.69 87 1007.0
20260506175540 17 232 6.4 24.1 0.00 0.69 0.69 87 1007.1
20260506175041 17 209 4.8 24.1 0.00 0.69 0.69 88 1007.2
20260506174552 16 242 8.0 24.1 0.00 0.69 0.69 89 1007.1
20260506174044 16 218 4.8 20.9 0.00 0.69 0.69 90 1007.2
20260506173541 16 216 6.4 20.9 0.00 0.69 0.69 90 1007.1
20260506173101 16 194 1.6 22.5 0.00 0.69 0.69 90 1007.2
20260506172541 16 216 4.8 22.5 0.00 0.69 0.69 90 1007.2
20260506172041 16 236 4.8 20.9 0.00 0.69 0.69 91 1007.2
20260506171557 15 227 6.4 17.7 0.00 0.69 0.69 91 1007.2
20260506171041 15 171 4.8 14.5 0.00 0.69 0.69 91 1007.2
20260506170541 15 217 4.8 16.1 0.00 0.69 0.69 91 1007.1
20260506170047 15 224 4.8 16.1 0.00 0.69 0.69 91 1007.2
20260506165541 15 228 3.2 22.5 0.00 0.69 0.69 91 1007.2
20260506165041 15 219 6.4 24.1 0.00 0.69 0.69 91 1007.2
20260506164546 15 234 8.0 25.7 0.00 0.69 0.69 92 1007.3
20260506164041 15 214 8.0 25.7 0.00 0.69 0.69 92 1007.2
20260506163541 15 216 6.4 30.6 0.00 0.69 0.69 92 1007.3
20260506163053 15 227 4.8 30.6 0.00 0.69 0.69 92 1007.2
20260506162544 15 257 6.4 30.6 0.00 0.69 0.69 93 1007.0
20260506162043 15 202 6.4 25.7 0.00 0.69 0.69 93 1007.0
20260506161555 15 214 8.0 25.7 0.00 0.69 0.69 93 1007.2
20260506161041 15 212 6.4 27.4 0.03 0.69 0.69 93 1007.3
20260506160544 15 198 6.4 30.6 0.03 0.69 0.69 93 1007.4
20260506160106 15 186 11.3 30.6 0.03 0.69 0.69 93 1007.4
20260506155541 15 209 8.0 29.0 0.03 0.69 0.69 94 1007.4
20260506155041 15 246 9.7 29.0 0.05 0.69 0.69 94 1007.3
20260506154553 15 188 8.0 25.7 0.05 0.69 0.69 94 1007.2
20260506154042 15 207 8.0 25.7 0.13 0.69 0.69 94 1007.1
20260506153541 15 215 8.0 24.1 0.15 0.69 0.69 94 1007.0
20260506153055 15 223 8.0 24.1 0.18 0.69 0.69 94 1007.0
20260506152540 15 209 11.3 25.7 0.18 0.69 0.69 94 1007.2
20260506152041 15 251 8.0 25.7 0.18 0.69 0.69 94 1007.3
20260506151550 15 187 8.0 20.9 0.20 0.66 0.66 94 1007.1
20260506151041 15 180 8.0 25.7 0.23 0.66 0.66 94 1007.0
20260506150541 15 231 9.7 25.7 0.25 0.66 0.66 94 1007.1
20260506150051 15 212 9.7 27.4 0.25 0.66 0.66 94 1007.4
20260506145541 15 180 4.8 27.4 0.28 0.66 0.66 94 1007.8
20260506145041 15 200 3.2 16.1 0.28 0.64 0.64 94 1008.0
20260506144553 15 196 3.2 11.3 0.28 0.64 0.64 94 1008.1
20260506144041 15 250 3.2 17.7 0.20 0.56 0.56 93 1008.1
20260506143541 15 240 4.8 17.7 0.20 0.53 0.53 93 1008.1
20260506143044 15 217 4.8 20.9 0.18 0.51 0.51 94 1008.0
20260506142540 15 221 8.0 27.4 0.23 0.51 0.51 93 1007.9
20260506142040 15 217 8.0 27.4 0.20 0.48 0.48 93 1007.7
20260506141551 15 209 9.7 25.7 0.20 0.46 0.46 93 1007.7
20260506141041 15 217 8.0 24.1 0.20 0.43 0.43 93 1007.8
20260506140541 15 223 6.4 20.9 0.20 0.41 0.41 93 1007.5
20260506140050 15 213 11.3 33.8 0.23 0.41 0.41 93 1007.4
20260506135541 15 221 9.7 33.8 0.23 0.38 0.38 93 1007.4
20260506135041 15 136 11.3 27.4 0.23 0.36 0.36 93 1007.4
20260506134614 15 221 8.0 25.7 0.23 0.36 0.36 93 1007.6
20260506134041 15 204 9.7 25.7 0.25 0.36 0.36 92 1007.6
20260506133541 15 192 9.7 25.7 0.23 0.33 0.33 92 1007.6
20260506133054 15 187 9.7 24.1 0.25 0.33 0.33 92 1007.6
20260506132541 15 205 9.7 24.1 0.23 0.28 0.28 91 1007.7
20260506132042 15 219 9.7 24.1 0.23 0.25 0.25 91 1007.7
20260506131607 15 217 8.0 22.5 0.23 0.25 0.25 91 1007.7
20260506131041 15 204 9.7 22.5 0.23 0.23 0.23 90 1007.9
20260506130541 15 169 8.0 24.1 0.20 0.20 0.20 90 1007.8
20260506130050 15 178 6.4 24.1 0.18 0.18 0.18 89 1007.8
20260506125541 15 219 6.4 20.9 0.15 0.15 0.15 89 1007.8
20260506125041 15 180 6.4 19.3 0.13 0.13 0.13 88 1007.9
20260506124551 15 222 4.8 24.1 0.13 0.13 0.13 88 1007.8
20260506124041 15 178 4.8 24.1 0.10 0.10 0.10 87 1007.8
20260506123541 15 153 6.4 19.3 0.10 0.10 0.10 86 1008.0
20260506123049 15 221 4.8 16.1 0.08 0.08 0.08 86 1008.0
20260506122541 15 211 3.2 16.1 0.05 0.05 0.05 85 1008.0
20260506122042 16 220 4.8 16.1 0.03 0.03 0.03 83 1007.9
20260506121549 16 205 6.4 22.5 0.03 0.03 0.03 82 1008.0